Location: ????????
(55.6189°N, 38.3031°E)
Time: 22:08:07
(UTC+00:00)

H-2A R/B - Pass Details

Date: 15 November 2019
Orbit: 530 x 653 km, 98.3° (Epoch: 14 December)

Event Time Altitude Azimuth Distance (km) Brightness Sun altitude
Rises 03:10:50 0° 10° (N) 2,974 6.1 -15.2°
Reaches altitude 10° 03:13:16 10° 359° (N) 2,068 5.1 -14.8°
Maximum altitude 03:17:06 28° 301° (WNW) 1,230 3.5 -14.3°
Enters shadow 03:19:11 20° 260° (W) 1,523 4.0 -14.0°
